Jakub Skriniar

Chefscout - FK Senica
3 Apr 2027
Samstag
Verarbeitung

Persönlichkeit

Anpassungsfähigkeit (19) Ehrgeiz (3) Kontroverse (7) Loyalität (15) Druck (5) Professionalität (18) Fairness (7) Temperament (10)

Profil

Trainerstil Demokratisch
Lizenz Kontinentale A
Entschlossenheit 4
Menschenführung 6
Motivation 3
Disziplin 3
Arbeitszufriedenheit
100%
Ermüdung
0%
Rolle Chefscout
Gehalt 53.0K p/W
Vertrag 14.03.2030

Leistung

Verhalten Gut
Trainingseffektivität
33%
Spielerentwicklung
35%
Verletzungsprävention
25%
Taktische Umsetzung
20%

Letzte Ereignisse

Spieler begutachtet jetzt
Nahm an einer Scouting-Besprechung teil jetzt
Nahm an einer Scouting-Besprechung teil jetzt
Nahm an einer Scouting-Besprechung teil jetzt
Nahm an einer Scouting-Besprechung teil jetzt
Nahm an einer Scouting-Besprechung teil jetzt
Nahm an einer Scouting-Besprechung teil jetzt
Nahm an einer Scouting-Besprechung teil jetzt

Aktuell beobachtet

122
Spieler Verein Status Fähigkeit Vertrauen Beobachtet Zuletzt beobachtet Letzte Stimme
Pavel Meleshin Sochi Aktiv 106 / 112 40% 3 01.04.2027 -
Marcus Browne AFC Wimbledon Aktiv 103 / 117 40% 1 01.04.2027 -
Edarlyn Reyes Arsenal Tula Aktiv 99 / 108 40% 3 30.03.2027 -
Aaron Drinan Swindon Town Aktiv 100 / 111 40% 2 30.03.2027 -
Mésaque Djú Portimonense Aktiv 118 / 97 40% 3 29.03.2027 -
Freddie Draper Lincoln City Aktiv 96 / 109 40% 1 29.03.2027 -
Paublo Jara Chelyabinsk Aktiv 86 / 85 40% 1 28.03.2027 -
Mason Bennett Harrogate Town Aktiv 102 / 83 40% 1 28.03.2027 -
Stephen Humphrys Bradford City Aktiv 126 / 123 40% 6 27.03.2027 -
Eljon Toci Dolomiti Bellunesi Aktiv 92 / 93 40% 1 27.03.2027 -
Johnson Amuzu Berekum Chelsea Aktiv 85 / 86 40% 3 26.03.2027 -
Elliott List Northampton Town Aktiv 101 / 91 40% 1 26.03.2027 -
Jacobo Alcalde SKA Khabarovsk Aktiv 106 / 95 40% 2 25.03.2027 -
Zoumana Simpara Djoliba Aktiv 96 / 92 40% 1 25.03.2027 -
Yeangel Montero Naxxar Lions Aktiv 115 / 100 40% 5 24.03.2027 -
Lukáš Juliš MSK Zilina Aktiv 127 / 112 40% 6 20.03.2027 -
Fabio Abiuso Carrarese Aktiv 130 / 114 40% 1 20.03.2027 -
Darío Poveda Nea Salamis Aktiv 92 / 111 40% 2 19.03.2027 -
Ayom Majok Zabbar St. Patrick Aktiv 106 / 95 40% 1 19.03.2027 -
Amur Kalmykov Spartak Kostroma Aktiv 97 / 111 40% 2 17.03.2027 -
Radek Šiler Podbrezova Aktiv 121 / 115 40% 2 16.03.2027 -
Jesús Molina Chelyabinsk Aktiv 89 / 93 40% 1 16.03.2027 -
Maxim Kutovoy Salyut Aktiv 89 / 79 40% 1 15.03.2027 -
Brandon Hanlan Doncaster Rovers Aktiv 115 / 105 40% 5 13.03.2027 -
Andronikos Kakoullis Aris Aktiv 125 / 110 40% 1 13.03.2027 -
Lewis McCann Fleetwood Town Aktiv 96 / 112 40% 2 11.03.2027 -
Kamran Aliev SKA Khabarovsk Aktiv 104 / 104 40% 1 11.03.2027 -
Patrik Iľko MSK Zilina Aktiv 124 / 103 40% 3 10.03.2027 -
Thom van Bergen Groningen Aktiv 98 / 112 40% 1 08.03.2027 -
Malick Berthé AS Police Aktiv 99 / 107 40% 1 08.03.2027 -
David Karaev KAMAZ Aktiv 87 / 108 40% 1 06.03.2027 -
Stanislav Biblyk Chaika Aktiv 106 / 90 40% 2 02.03.2027 -
Juan Cejas Ethnikos Achnas Aktiv 118 / 107 40% 1 28.02.2027 -
Moussakoye Diallo Stade Malien Aktiv 108 / 110 40% 1 27.02.2027 -
Ilja Safronov Rotor Aktiv 113 / 109 40% 2 26.02.2027 -
Alexandr Saplinov Volga Aktiv 95 / 91 40% 2 26.02.2027 -
Jonathan Okoronkwo Torpedo Moscow Aktiv 92 / 100 40% 1 25.02.2027 -
Gilson Benchimol Akron Aktiv 118 / 117 40% 1 20.02.2027 -
Rody Junior Effaghe Aris Aktiv 91 / 107 40% 1 19.02.2027 -
Luka Reischl ADO Den Haag Aktiv 108 / 117 40% 1 18.02.2027 -
Alexandr Dolgov Amkar Aktiv 92 / 91 40% 4 16.02.2027 -
Jere Vrcić Birkirkara Aktiv 98 / 87 40% 1 14.02.2027 -
Franklin Sasere Birkirkara Aktiv 108 / 92 40% 2 11.02.2027 -
Vladislav Sarveli Nizhniy Novgorod Aktiv 107 / 118 40% 2 11.02.2027 -
Fernandinho Sliema Wanderers Aktiv 81 / 96 40% 1 09.02.2027 -
Johnson Amuzu Berekum Chelsea Verloren 102 / 83 40% 1 07.01.2027 -
Dmitry Tsypchenko Torpedo Moscow Aktiv 108 / 97 40% 2 31.12.2026 Mehr Infos nötig
Davit Volkovi Zira Aktiv 108 / 105 40% 4 31.12.2026 -
Silas Nwankwo Police Union Aktiv 85 / 114 40% 1 30.12.2026 -
Patrick Schmidt Tarxien Rainbows Aktiv 80 / 104 40% 2 29.12.2026 -
Migran Ageyan Ufa Aktiv 100 / 92 40% 1 28.12.2026 -
Daniil Kondrakov KDV Tomsk Aktiv 81 / 98 40% 2 25.12.2026 -
Sam Nombe Milton Keynes Dons Aktiv 95 / 112 40% 2 24.12.2026 -
Václav Sejk Sigma Olomouc Aktiv 127 / 114 40% 1 21.12.2026 Mehr Infos nötig
Alejandro Melo Temperley Verloren 109 / 131 40% 1 21.12.2026 -
Miro Dinamo Makhachkala Aktiv 96 / 117 40% 2 18.12.2026 -
Martin Sekulić Ural Aktiv 109 / 119 40% 1 17.12.2026 -
Danila Shilov Dinamo Stavropol Aktiv 96 / 104 40% 2 15.12.2026 -
Piotr Samiec-Talar Slask Aktiv 92 / 101 40% 3 13.12.2026 Beobachten
Daniil Agureev Amkar Verloren 100 / 93 40% 1 11.12.2026 -
Matěj Koubek MFK Ruzomberok Aktiv 100 / 111 40% 1 10.12.2026 Mehr Infos nötig
Cavid Madatov Khazar Aktiv 98 / 100 40% 1 10.12.2026 -
Qara Ozobic Inter Aktiv 111 / 107 40% 5 09.12.2026 Beobachten
Jay-Roy Grot OB Aktiv 138 / 130 40% 1 08.12.2026 Mehr Infos nötig
Marcel Reguła Zaglebie Aktiv 111 / 118 40% 2 05.12.2026 -
Wladimir Cid NK Zavrc Aktiv 89 / 87 40% 2 30.11.2026 -
Vladimir Khubulov Dinamo Makhachkala Aktiv 94 / 98 40% 2 30.11.2026 -
Fran Brodić MFK Ruzomberok Aktiv 120 / 100 40% 4 29.11.2026 -
Lucas González Estudiantes Aktiv 120 / 122 40% 1 28.11.2026 -
Daniel Tarazona Neftchi Aktiv 106 / 101 40% 1 17.11.2026 -
Realdo Fili Khazar Aktiv 110 / 105 40% 1 16.11.2026 -
Pepijn Doesburg AS Trencin Aktiv 116 / 90 40% 3 09.11.2026 -
Philip Elayo Azango Spartak Trnava Aktiv 122 / 112 40% 2 08.11.2026 -
Rodin Quiñónes Dinamo Batumi Aktiv 112 / 105 40% 2 07.11.2026 -
Claudio Salto Almagro Aktiv 121 / 101 40% 1 06.11.2026 -
Jack Vale Alcione Milano Aktiv 73 / 81 40% 1 06.11.2026 -
Diamanka Senghor Mosta Aktiv 67 / 89 40% 2 05.11.2026 -
Tyrese Shade Burton Albion Aktiv 86 / 85 40% 2 05.11.2026 -
Hakeeb Adelakun Doncaster Rovers Aktiv 87 / 119 40% 1 04.11.2026 -
Daniel Udoh Salford City Aktiv 97 / 101 40% 1 01.11.2026 -
Franko Sabljić AS Trencin Aktiv 94 / 104 40% 1 29.10.2026 -
Jurica Poldrugač Rudes Aktiv 104 / 98 40% 1 23.10.2026 -
Manprit Sarkaria Austria Wien Aktiv 108 / 107 40% 1 22.10.2026 -
José Ángel López MFK Michalovce Aktiv 104 / 92 40% 1 20.10.2026 -
Algassime Bah Dinamo Tbilisi Aktiv 98 / 105 40% 1 20.10.2026 -
Hernán Luna NK Domzale Aktiv 90 / 92 40% 1 19.10.2026 -
Marko Roginić MSK Zilina Aktiv 82 / 100 40% 1 19.10.2026 -
Ilja Grischenko Kaluga Aktiv 103 / 87 40% 1 18.10.2026 -
Matty Stevens AFC Wimbledon Aktiv 113 / 104 40% 3 16.10.2026 -
Cristhian Medina Smorgon Aktiv 104 / 84 40% 1 11.10.2026 -
Ruslan Bayramov Inter Aktiv 94 / 101 40% 1 06.10.2026 -
Anthony Lokosa Tarxien Rainbows Aktiv 73 / 100 40% 1 06.10.2026 -
Egor Bogomolskiy Zira Aktiv 91 / 104 40% 1 05.10.2026 -
Brian Blando Agropecuario Argentino Aktiv 131 / 106 40% 1 04.10.2026 -
Marcos Cuenca Zaragoza Aktiv 96 / 109 40% 2 02.10.2026 -
Genaro Rossi San Martín SJ Aktiv 114 / 108 40% 1 28.09.2026 -
Ousmane Diawara Altach Aktiv 84 / 120 40% 1 28.09.2026 -
Kristian Eriksen Molde Aktiv 101 / 117 40% 1 23.09.2026 -
Abdulmajid Aminu Barau Aktiv 87 / 78 40% 1 22.09.2026 -
Alasana Yirajang Slovan Bratislava Aktiv 124 / 111 40% 1 22.09.2026 -
Damir Céter Hamrun Spartans Aktiv 94 / 100 40% 2 18.09.2026 -
Calvin Kabuye KuPS Aktiv 91 / 84 40% 1 18.09.2026 -
Junior Paredes Trujillanos Aktiv 100 / 98 40% 1 17.09.2026 -
Tomasz Walczak MFK Michalovce Aktiv 94 / 87 40% 1 16.09.2026 -
Archil Kakabadze Tskhinvali Aktiv 108 / 109 40% 1 15.09.2026 -
Luka Zahovič NK Maribor Aktiv 113 / 101 40% 1 14.09.2026 -
Elías Ovelar Neman Aktiv 76 / 98 40% 1 11.09.2026 -
Aron Elís Þrándarson Vikingur Aktiv 111 / 117 40% 1 08.09.2026 -
Javohir Esonqulov Merani Aktiv 81 / 106 40% 1 08.09.2026 -
Richard Celis Zamora Aktiv 131 / 111 40% 1 05.09.2026 -
Kufre Ebong Niger Tornadoes Aktiv 89 / 94 40% 1 04.09.2026 -
Ramiro Ruiz Rodríguez Atlético Tucumán Aktiv 99 / 110 40% 1 03.09.2026 -
Santiago de Ossa Zamora Aktiv 74 / 109 40% 1 02.09.2026 -
Peter Guinari MFK Skalica Aktiv 89 / 96 41% 1 31.08.2026 -
Regő Szánthó MSK Zilina Aktiv 92 / 96 40% 1 31.08.2026 -
Vinicius Baiano Naxxar Lions Aktiv 73 / 96 40% 1 30.08.2026 -
Yegor Kortsov Dinamo Brest Aktiv 102 / 115 40% 1 29.08.2026 -
Ronny Maza Aragua Aktiv 96 / 80 40% 1 26.08.2026 -
Ronaldo Peña Deportivo Lara Aktiv 82 / 102 40% 1 25.08.2026 -
Santiago Herrera Trujillanos Aktiv 114 / 106 40% 1 24.08.2026 -
Kavier Ortiz Metropolitanos Aktiv 99 / 79 40% 1 24.08.2026 -
Dmitri Mandrîcenco Dinamo Batumi Aktiv 93 / 83 40% 1 03.08.2026 -